Showing default

ALSAT 1N, 41789

Orbit data source: Space-Track

ALSAT 1N, 41789 is an Algerian payload satellite in SSO that was launched on Mon, 26 Sep 2016 UTC via a PSLV launch vehicle from the Sirharikota (SRI). Payload-class satellites include a variety of spacecraft equipped with specific instruments for various scientific and technological missions. These include communications satellites like Starlink; space stations such as the ISS; scientific satellites like the Hubble; Earth observation satellites from companies like Planet Labs, Umbra, and HawkEye 360; GPS; miniature CubeSats for education and research; and military/defense satellites.

Loading next visibility...
Identifier
41789, 2016-059G
Orbit
SSO
Country
Flag of DZDZ / ALG
Related business
Manufacturer
ASAL/SSC
Mission
Non-operational Civil Imaging
Bus & Motor
CUBESAT 3U, Unknown motor
Mass
7 kg wet, 7 kg dry
Launch date (UTC)
2016-09-26 (9 years ago)
Launch vehicle
PSLV
Launch site
Sirharikota (SRI)
Object type
Payload
Rocket body
Debris
Shape & HBR
Box, 0.1 m
Radar Cross Section
0.075 m², Small (<0.1 m²)

Expand to show TLE details & history
Last TLE update: 12 hours ago

TLE from 12 hours ago
0 ALSAT 1N
1 41789U 16059G   25258.27051991  .00001196  00000-0  21305-3 0  9997
2 41789  97.8057 268.9992 0025936 350.3951   9.6756 14.68564139479643
Epoch: 2025-09-15T06:29Z
TLE epoch observation values (Epoch: 2025-09-15T06:29:32.92Z)
Latitude
0.00003°
Longitude
177.13445°
Altitude
650.653 km
Speed
7.542 km/s
True Right ascension
17h 55m 59s
True Declination
0° 00' 00"
Sunlit
Object was in daylight at epoch
Visualization orbit readout
Latitude
Unknown
Longitude
Unknown
Altitude
Unknown
Speed
Unknown
Apparent Right ascension
Unknown
Apparent Declination
Unknown
Sunlit
N/A
Visualization observer readout
Local Sidereal Time
11:09:15
Azimuth
Unknown
Elevation
Unknown
Doppler factor
Unknown
Orbital elements
Apogee altitude
680.969 km
Perigee altitude
644.446 km
Semi-major axis
7,040.845 km
Eccentricity
0.00259
Inclination
97.8057°
RAAN
268.9992°
Arg. of periapsis
350.3951°
True anomaly
9.72571°
Mean anomaly
9.6756°
Eccentric anomaly
9.70064°
Mean motion
3.67372 °/min
Orbital period
97.99 mins
BSTAR
0.00021305
Loading maneuver chart data...
Computing Atmospheric mass density...
Loading historical data...
Loading historical data...
Loading historical data...
Loading historical data...
Loading historical data...
Loading historical data...
Loading historical data...

Documentation

Showing up to 5 results
|